K3FAZ Weather Reports


time (UTC)temp
F
wind
direction
speed
knots
gust
knots
rain 1hr
in
rain 24hr
in
rain mn
in
humidity
%
barometer
mb
20260507231247 56 37 0.9 0.9 0.00 0.00 0.00 41 1013.4
20260507230743 56 309 0.9 0.9 0.00 0.00 0.00 43 1013.2
20260507230241 56 35 1.7 2.6 0.00 0.00 0.00 42 1013.3
20260507225740 56 15 1.7 2.6 0.00 0.00 0.00 43 1013.2
20260507225237 56 37 0.9 0.9 0.00 0.00 0.00 42 1013.0
20260507224733 56 39 0.0 0.9 0.00 0.00 0.00 42 1013.1
20260507224230 56 7 0.0 0.0 0.00 0.00 0.00 41 1013.2
20260507223726 57 10 1.7 3.5 0.00 0.00 0.00 42 1013.1
20260507223223 57 58 1.7 2.6 0.00 0.00 0.00 42 1013.0
20260507222719 57 338 0.0 0.9 0.00 0.00 0.00 42 1013.0
20260507222216 57 164 0.9 1.7 0.00 0.00 0.00 41 1013.1
20260507221713 58 19 0.9 2.6 0.00 0.00 0.00 39 1012.9
20260507221209 58 339 0.9 1.7 0.00 0.00 0.00 40 1012.9
20260507220706 59 352 0.0 0.0 0.00 0.00 0.00 38 1012.8
20260507220204 59 212 1.7 1.7 0.00 0.00 0.00 39 1012.7
20260507215659 59 42 2.6 3.5 0.00 0.00 0.00 36 1012.7
20260507215157 59 319 2.6 2.6 0.00 0.00 0.00 38 1012.7
20260507214654 59 284 3.5 3.5 0.00 0.00 0.00 37 1012.7
20260507214151 59 309 2.6 3.5 0.00 0.00 0.00 38 1012.7
20260507213646 59 272 0.9 1.7 0.00 0.00 0.00 41 1012.5
20260507213144 60 34 0.0 0.0 0.00 0.00 0.00 36 1012.5
20260507212640 60 222 5.2 7.0 0.00 0.00 0.00 35 1012.6
20260507212137 60 230 4.3 5.2 0.00 0.00 0.00 38 1012.7
20260507211634 59 342 0.9 0.9 0.00 0.00 0.00 37 1012.6
20260507211129 60 24 3.5 3.5 0.00 0.00 0.00 38 1012.5
20260507210628 59 274 1.7 1.7 0.00 0.00 0.00 39 1012.5
20260507210124 59 174 4.3 6.1 0.00 0.00 0.00 37 1012.3
20260507205621 59 353 0.9 0.9 0.00 0.00 0.00 41 1012.4
20260507205117 59 332 0.9 1.7 0.00 0.00 0.00 41 1012.4
20260507204613 60 7 0.9 1.7 0.00 0.00 0.00 37 1012.3
20260507204111 60 357 0.9 1.7 0.00 0.00 0.00 37 1012.4
20260507203609 60 209 1.7 1.7 0.00 0.00 0.00 39 1012.4
20260507203106 60 50 0.9 2.6 0.00 0.00 0.00 40 1012.4
20260507202601 59 234 2.6 3.5 0.00 0.00 0.00 37 1012.5
20260507202057 59 50 2.6 2.6 0.00 0.00 0.00 41 1012.4
20260507201553 59 4 0.0 0.9 0.00 0.00 0.00 40 1012.5
20260507201050 59 302 1.7 1.7 0.00 0.00 0.00 39 1012.4
20260507200545 59 28 1.7 2.6 0.00 0.00 0.00 44 1012.6
20260507200042 59 170 2.6 2.6 0.00 0.00 0.00 41 1012.6
20260507195539 60 44 0.0 0.0 0.00 0.00 0.00 43 1012.9
20260507195037 61 357 1.7 3.5 0.00 0.00 0.00 38 1012.7
20260507194533 61 2 0.0 0.0 0.00 0.00 0.00 40 1012.6
20260507194029 61 66 4.3 7.0 0.00 0.00 0.00 38 1012.7
20260507193526 59 22 1.7 1.7 0.00 0.00 0.00 46 1012.8
20260507193023 60 345 0.9 0.9 0.00 0.00 0.00 40 1012.8
20260507192519 59 2 0.9 0.9 0.00 0.00 0.00 40 1012.7
20260507192016 61 338 3.5 5.2 0.00 0.00 0.00 41 1012.7
20260507191511 60 335 0.9 2.6 0.00 0.00 0.00 40 1012.8
20260507191009 59 165 1.7 2.6 0.00 0.00 0.00 42 1012.7
20260507190506 61 355 3.5 3.5 0.00 0.00 0.00 41 1012.8
20260507190006 60 241 0.0 0.9 0.00 0.00 0.00 46 1012.9
20260507185502 61 355 0.9 1.7 0.00 0.00 0.00 44 1013.0
20260507184958 60 258 2.6 2.6 0.00 0.00 0.00 41 1013.1
20260507184457 59 303 2.6 3.5 0.00 0.00 0.00 41 1013.1
20260507183954 58 217 4.3 6.1 0.00 0.00 0.00 42 1013.3
20260507183450 60 170 4.3 7.0 0.00 0.00 0.00 43 1013.2
20260507182948 59 93 0.9 1.7 0.00 0.00 0.00 42 1013.3
20260507182444 59 355 0.9 1.7 0.00 0.00 0.00 42 1013.2
20260507181939 59 157 3.5 5.2 0.00 0.00 0.00 43 1013.1
20260507181436 60 34 1.7 1.7 0.00 0.00 0.00 44 1013.1
20260507180933 60 103 3.5 3.5 0.00 0.00 0.00 43 1013.1
20260507180430 61 184 5.2 7.8 0.00 0.00 0.00 46 1013.2
20260507175926 61 78 1.7 1.7 0.00 0.00 0.00 42 1013.2
20260507175423 60 177 2.6 2.6 0.00 0.00 0.00 51 1013.5
20260507174920 61 236 2.6 3.5 0.00 0.00 0.00 41 1013.4
20260507174417 60 3 3.5 3.5 0.00 0.00 0.00 44 1013.3
20260507173915 60 322 0.9 1.7 0.00 0.00 0.00 44 1013.5
20260507173412 60 150 1.7 2.6 0.00 0.00 0.00 43 1013.6
20260507172908 59 237 3.5 3.5 0.00 0.00 0.00 43 1013.5
20260507172405 58 249 2.6 2.6 0.00 0.00 0.00 43 1013.5
20260507171901 57 190 2.6 3.5 0.00 0.00 0.00 45 1013.9
20260507171358 57 173 3.5 3.5 0.00 0.00 0.00 47 1013.9
20260507170855 58 1 0.9 2.6 0.00 0.00 0.00 42 1014.0
20260507170351 59 194 6.1 7.0 0.00 0.00 0.00 44 1014.0
20260507165847 57 240 2.6 2.6 0.00 0.00 0.00 49 1014.1
20260507165343 57 179 2.6 3.5 0.00 0.00 0.00 45 1014.1
20260507164840 58 138 1.7 5.2 0.00 0.00 0.00 43 1013.9
20260507164337 56 140 0.9 1.7 0.00 0.00 0.00 43 1013.9
20260507163834 57 186 1.7 2.6 0.00 0.00 0.00 45 1014.3
20260507163331 56 317 0.0 0.0 0.00 0.00 0.00 47 1014.2
20260507162827 58 123 1.7 2.6 0.00 0.00 0.00 46 1014.2
20260507162323 57 185 3.5 5.2 0.00 0.00 0.00 42 1014.2
20260507161820 59 358 1.7 3.5 0.00 0.00 0.00 40 1014.3
20260507161317 59 261 1.7 1.7 0.00 0.00 0.00 47 1014.3
20260507160813 58 52 0.0 0.9 0.00 0.00 0.00 44 1014.3
20260507160309 57 42 5.2 7.0 0.00 0.00 0.00 50 1014.4
20260507155806 57 347 3.5 3.5 0.00 0.00 0.00 51 1014.5
20260507155305 59 30 0.9 0.9 0.00 0.00 0.00 44 1014.6
20260507154758 58 90 0.9 0.9 0.00 0.00 0.00 50 1014.7
20260507154256 57 31 1.7 1.7 0.00 0.00 0.00 48 1014.6
20260507153752 58 7 0.9 0.9 0.00 0.00 0.00 43 1014.7
20260507153249 57 193 3.5 5.2 0.00 0.00 0.00 46 1014.7
20260507152745 57 222 1.7 2.6 0.00 0.00 0.00 44 1014.7
20260507152242 57 286 0.9 1.7 0.00 0.00 0.00 45 1015.0
20260507151738 55 217 1.7 3.5 0.00 0.00 0.00 46 1015.2
20260507151234 56 188 4.3 5.2 0.00 0.00 0.00 50 1015.0
20260507150731 57 30 0.9 1.7 0.00 0.00 0.00 47 1015.1
20260507150228 55 68 0.0 0.0 0.00 0.00 0.00 49 1015.1
20260507145724 55 174 4.3 6.1 0.00 0.00 0.00 50 1015.3
20260507145221 53 192 1.7 1.7 0.00 0.00 0.00 50 1015.5
20260507144718 54 158 1.7 2.6 0.00 0.00 0.00 50 1015.5
20260507144216 55 169 2.6 3.5 0.00 0.00 0.00 50 1015.4
20260507143712 55 223 1.7 2.6 0.00 0.00 0.00 55 1015.5
20260507143209 54 190 3.5 5.2 0.00 0.00 0.00 58 1015.7
20260507142705 54 189 2.6 3.5 0.00 0.00 0.00 54 1015.6
20260507142202 55 186 1.7 2.6 0.00 0.00 0.00 54 1015.6
20260507141658 54 192 1.7 2.6 0.00 0.00 0.00 57 1015.8
20260507141155 54 204 6.1 7.0 0.00 0.00 0.00 60 1015.8
20260507140651 54 216 2.6 2.6 0.00 0.00 0.00 61 1015.9
20260507140149 53 196 1.7 1.7 0.00 0.00 0.00 58 1015.8
20260507135645 54 160 5.2 6.1 0.00 0.00 0.00 60 1016.1
20260507135143 53 177 1.7 2.6 0.00 0.00 0.00 64 1015.9
20260507134639 53 169 0.9 0.9 0.00 0.00 0.00 60 1016.3
20260507134136 53 197 2.6 2.6 0.00 0.00 0.00 62 1016.0
20260507133631 52 187 1.7 2.6 0.00 0.00 0.00 60 1016.1
20260507133129 52 196 4.3 6.1 0.00 0.00 0.00 61 1016.0
20260507132626 51 276 2.6 2.6 0.00 0.00 0.00 62 1016.2
20260507132122 50 193 3.5 3.5 0.00 0.00 0.00 63 1016.0
20260507131619 51 182 4.3 5.2 0.00 0.00 0.00 62 1016.2
20260507131117 51 205 1.7 1.7 0.00 0.00 0.00 67 1016.0
20260507130613 50 173 2.6 3.5 0.00 0.00 0.00 69 1016.1
20260507130111 50 177 4.3 5.2 0.00 0.00 0.00 66 1016.1
20260507125610 49 170 3.5 3.5 0.00 0.00 0.00 68 1016.0
20260507125107 48 203 2.6 2.6 0.00 0.00 0.00 72 1016.2
20260507124603 48 172 1.7 2.6 0.00 0.00 0.00 75 1016.3
20260507124101 47 99 0.0 0.0 0.00 0.00 0.00 78 1016.1
20260507123559 47 172 1.7 2.6 0.00 0.00 0.00 77 1016.2
20260507123055 46 65 0.9 0.9 0.00 0.00 0.00 80 1016.3
20260507122551 46 42 0.9 1.7 0.00 0.00 0.00 80 1016.5
20260507122047 45 38 0.9 0.9 0.00 0.00 0.00 82 1016.2
20260507121542 45 53 0.0 0.0 0.00 0.00 0.00 82 1016.3
20260507121039 44 36 0.0 0.0 0.00 0.00 0.00 85 1016.3
20260507120535 43 86 0.9 0.9 0.00 0.00 0.00 85 1016.3
20260507120032 44 67 0.0 0.0 0.00 0.00 0.00 84 1016.4
20260507115528 44 22 0.0 0.0 0.00 0.00 0.00 87 1016.4
20260507115024 43 22 0.0 0.0 0.00 0.00 0.00 93 1016.4
20260507114520 41 22 0.0 0.0 0.00 0.00 0.00 96 1016.4
20260507114018 41 22 0.0 0.0 0.00 0.00 0.00 96 1016.2
20260507113515 41 22 0.0 0.0 0.00 0.00 0.00 97 1016.2
20260507113012 39 22 0.0 0.0 0.00 0.00 0.00 98 1016.2
20260507112509 37 23 0.0 0.0 0.00 0.00 0.00 98 1016.1
20260507112006 37 23 0.0 0.0 0.00 0.00 0.00 98 1016.3
20260507111504 37 11 0.0 0.0 0.00 0.00 0.00 97 1016.1
20260507110959 37 10 0.0 0.0 0.00 0.00 0.00 98 1016.0
20260507110456 35 10 0.0 0.0 0.00 0.00 0.00 98 1016.0
20260507105952 34 10 0.0 0.0 0.00 0.00 0.00 98 1015.9
20260507105449 33 10 0.0 0.0 0.00 0.00 0.00 98 1015.9
20260507104946 33 10 0.0 0.0 0.00 0.00 0.00 98 1015.9
20260507104443 33 10 0.0 0.0 0.00 0.00 0.00 98 1016.0
20260507103938 33 10 0.0 0.0 0.00 0.00 0.00 98 1015.8
20260507103436 33 10 0.0 0.0 0.00 0.00 0.00 97 1016.0
20260507102932 33 10 0.0 0.0 0.00 0.00 0.00 97 1015.7
20260507102428 33 10 0.0 0.0 0.00 0.00 0.00 97 1016.0
20260507101925 33 10 0.0 0.0 0.00 0.00 0.00 97 1016.0
20260507101420 32 10 0.0 0.0 0.00 0.00 0.00 97 1015.6
20260507100917 33 10 0.0 0.0 0.00 0.00 0.00 97 1015.8
20260507100414 33 10 0.0 0.0 0.00 0.00 0.00 97 1015.6
20260507095913 33 10 0.0 0.0 0.00 0.00 0.00 97 1015.5
20260507095409 33 10 0.0 0.0 0.00 0.00 0.00 97 1015.7
20260507094907 33 10 0.0 0.0 0.00 0.00 0.00 97 1015.8
20260507094403 33 10 0.0 0.0 0.00 0.00 0.00 97 1015.8
20260507093900 33 10 0.0 0.0 0.00 0.00 0.00 97 1015.8
20260507093358 33 10 0.0 0.0 0.00 0.00 0.00 97 1015.8
20260507092856 34 10 0.0 0.0 0.00 0.00 0.00 97 1015.9
20260507092352 34 10 0.0 0.0 0.00 0.00 0.00 97 1015.9
20260507091848 34 10 0.0 0.0 0.00 0.00 0.00 97 1015.8
20260507091345 34 10 0.0 0.0 0.00 0.00 0.00 97 1015.8
20260507090841 34 10 0.0 0.0 0.00 0.00 0.00 97 1015.9
20260507090337 34 10 0.0 0.0 0.00 0.00 0.00 96 1015.9
20260507085834 34 10 0.0 0.0 0.00 0.00 0.00 96 1015.8
20260507085331 35 13 0.0 0.0 0.00 0.00 0.00 96 1015.8
20260507084828 34 13 0.0 0.0 0.00 0.00 0.00 96 1015.9
20260507084325 34 13 0.0 0.0 0.00 0.00 0.00 96 1016.0
20260507083822 35 13 0.0 0.0 0.00 0.00 0.00 96 1015.8
20260507083318 35 13 0.0 0.0 0.00 0.00 0.00 96 1015.9
20260507082815 35 13 0.0 0.0 0.00 0.00 0.00 96 1015.8
20260507082310 35 13 0.0 0.0 0.00 0.00 0.00 96 1015.8
20260507081808 35 13 0.0 0.0 0.00 0.00 0.00 96 1016.0
20260507081303 35 7 0.0 0.0 0.00 0.00 0.00 95 1015.7
20260507080800 36 6 0.0 0.0 0.00 0.00 0.00 95 1015.7
20260507080257 36 9 0.0 0.0 0.00 0.00 0.00 95 1015.9
20260507075752 36 10 0.0 0.0 0.00 0.00 0.00 95 1015.8
20260507075248 36 10 0.0 0.0 0.00 0.00 0.00 95 1015.7
20260507074745 37 11 0.0 0.0 0.00 0.00 0.00 95 1015.8
20260507074243 37 344 0.0 0.0 0.00 0.00 0.00 94 1015.8
20260507073739 37 351 0.0 0.0 0.00 0.00 0.00 94 1015.8
20260507073236 37 1 0.0 0.0 0.00 0.00 0.00 94 1016.1
20260507072734 37 1 0.0 0.0 0.00 0.00 0.00 94 1015.9
20260507072231 37 1 0.0 0.0 0.00 0.00 0.00 93 1015.8
20260507071728 37 1 0.0 0.0 0.00 0.00 0.00 93 1016.0
20260507071225 38 1 0.0 0.0 0.00 0.00 0.00 93 1016.0
20260507070722 38 1 0.0 0.0 0.00 0.00 0.00 92 1016.0
20260507070219 39 1 0.0 0.0 0.00 0.00 0.00 92 1015.8
20260507065715 39 1 0.0 0.0 0.00 0.00 0.00 92 1015.8
20260507065212 39 1 0.0 0.0 0.00 0.00 0.00 91 1016.0
20260507064709 39 1 0.0 0.0 0.00 0.00 0.00 91 1015.8
20260507064208 40 1 0.0 0.0 0.00 0.00 0.00 90 1016.0
20260507063705 41 1 0.0 0.0 0.00 0.00 0.00 89 1016.0
20260507063201 41 1 0.0 0.0 0.00 0.00 0.00 88 1015.9
20260507062659 42 1 0.0 0.0 0.00 0.00 0.00 87 1015.9
20260507062156 42 0 0.0 0.0 0.00 0.00 0.00 86 1016.0
20260507061654 43 0 0.0 0.0 0.00 0.00 0.00 85 1016.1
20260507061152 43 0 0.0 0.0 0.00 0.00 0.00 85 1016.1
20260507060649 44 0 0.0 0.0 0.00 0.00 0.00 84 1015.9
20260507060146 44 0 0.0 0.0 0.00 0.00 0.00 82 1016.2
20260507055641 44 0 0.0 0.0 0.00 0.00 0.00 82 1016.1
20260507055138 44 0 0.0 0.0 0.00 0.00 0.00 81 1016.2
20260507054633 45 0 0.0 0.0 0.00 0.00 0.00 80 1016.0
20260507054131 45 0 0.0 0.0 0.00 0.00 0.00 77 1016.1
20260507053628 45 0 0.0 0.0 0.00 0.00 0.00 74 1016.5
20260507053126 45 0 0.0 0.0 0.00 0.00 0.00 72 1016.6
20260507052625 45 0 0.0 0.0 0.00 0.00 0.00 72 1016.6
20260507052120 45 0 0.0 0.0 0.00 0.00 0.00 72 1016.8
20260507051618 46 0 0.0 0.0 0.00 0.00 0.00 72 1016.6
20260507051115 46 3 0.0 0.0 0.00 0.00 0.00 72 1016.6
20260507050612 46 3 0.0 0.0 0.00 0.00 0.00 72 1016.6
20260507050109 46 7 0.0 0.0 0.00 0.00 0.00 68 1016.8
20260507045605 46 9 0.0 0.0 0.00 0.00 0.00 68 1016.7
20260507045102 46 1 0.0 0.0 0.00 0.00 0.00 70 1016.6
20260507044559 46 359 0.0 0.0 0.00 0.00 0.00 72 1016.8
20260507044056 46 7 0.0 0.0 0.00 0.00 0.00 69 1016.7
20260507043551 46 7 0.0 0.0 0.00 0.00 0.00 67 1016.6
20260507043049 47 0 0.9 0.9 0.00 0.00 0.00 67 1016.6
20260507042544 47 2 0.0 0.0 0.00 0.00 0.00 67 1016.7
20260507042040 47 7 0.0 0.0 0.00 0.00 0.00 68 1016.7
20260507041538 47 6 0.0 0.0 0.00 0.00 0.00 68 1016.7
20260507041035 47 349 0.0 0.9 0.00 0.00 0.00 66 1016.7
20260507040531 47 6 0.9 0.9 0.00 0.00 0.00 68 1016.4
20260507040027 46 13 0.0 0.0 0.00 0.53 0.53 75 1016.6
20260507035523 46 5 0.0 0.0 0.00 0.53 0.53 76 1016.6
20260507035020 46 8 0.0 0.0 0.00 0.53 0.53 79 1016.6
20260507034517 46 22 0.0 0.0 0.00 0.53 0.53 80 1016.5
20260507034015 46 359 0.0 0.0 0.00 0.53 0.53 81 1016.3
20260507033513 46 359 0.0 0.0 0.00 0.53 0.53 81 1016.3
20260507033010 46 359 0.0 0.0 0.00 0.53 0.53 80 1016.3
20260507032506 46 359 0.0 0.0 0.00 0.53 0.53 78 1016.2
20260507032003 47 359 0.0 0.0 0.00 0.53 0.53 78 1016.2
20260507031459 47 358 0.0 0.0 0.00 0.53 0.53 74 1016.2
20260507030956 47 358 0.0 0.0 0.00 0.53 0.53 70 1016.4
20260507030453 47 358 0.0 0.0 0.00 0.53 0.53 74 1016.2
20260507025950 47 357 0.0 0.0 0.00 0.53 0.53 73 1016.1
20260507025447 47 357 0.0 0.0 0.00 0.53 0.53 74 1016.1
20260507024945 47 357 0.0 0.0 0.00 0.53 0.53 74 1016.0
20260507024442 47 357 0.0 0.0 0.00 0.53 0.53 73 1016.0
20260507023938 48 5 0.0 0.0 0.00 0.53 0.53 72 1016.0
20260507023435 48 5 0.0 0.0 0.00 0.53 0.53 70 1016.0
20260507022932 48 5 0.0 0.0 0.00 0.53 0.53 69 1015.9
20260507022429 48 5 0.0 0.0 0.00 0.53 0.53 69 1015.8
20260507021924 48 5 0.0 0.0 0.00 0.53 0.53 65 1015.9
20260507021420 49 357 0.0 0.0 0.00 0.53 0.53 64 1015.9
20260507020918 49 4 0.0 0.0 0.00 0.53 0.53 63 1015.7
20260507020414 49 8 0.0 0.9 0.00 0.53 0.53 61 1015.6
20260507015911 49 357 0.0 0.0 0.00 0.53 0.53 65 1015.5
20260507015410 49 14 0.0 0.0 0.00 0.53 0.53 64 1015.5
20260507014906 49 357 0.0 0.0 0.00 0.53 0.53 64 1015.3
20260507014403 49 4 0.9 0.9 0.00 0.53 0.53 63 1015.4
20260507013859 49 12 0.9 0.9 0.00 0.53 0.53 62 1015.3
20260507013356 49 8 0.9 0.9 0.00 0.53 0.53 62 1015.4
20260507012854 49 9 0.9 1.7 0.00 0.53 0.53 63 1015.4
20260507012349 50 16 0.0 0.9 0.00 0.53 0.53 62 1015.6
20260507011847 49 0 1.7 1.7 0.00 0.53 0.53 62 1015.5
20260507011344 50 3 1.7 1.7 0.00 0.53 0.53 63 1015.4
20260507010843 50 9 0.0 0.9 0.00 0.53 0.53 65 1015.6
20260507010339 50 20 0.0 0.0 0.00 0.53 0.53 63 1015.8
20260507005837 50 25 0.0 0.0 0.00 0.53 0.53 62 1015.8
20260507005333 50 351 0.9 0.9 0.00 0.53 0.53 59 1015.9
20260507004830 50 8 0.0 0.0 0.00 0.53 0.53 60 1015.9
20260507004327 50 357 0.9 0.9 0.00 0.53 0.53 59 1015.9
20260507003824 51 14 0.0 0.0 0.00 0.53 0.53 59 1015.8
20260507003320 51 11 0.9 1.7 0.00 0.53 0.53 58 1015.7
20260507002815 51 8 0.0 0.0 0.00 0.53 0.53 58 1015.5
20260507002311 51 15 1.7 1.7 0.00 0.53 0.53 57 1015.5
20260507001809 51 17 1.7 1.7 0.00 0.53 0.53 58 1015.9
20260507001306 51 2 0.0 0.0 0.00 0.53 0.53 59 1015.8
20260507000802 51 48 1.7 2.6 0.00 0.53 0.53 58 1015.5
20260507000259 51 2 4.3 5.2 0.00 0.53 0.53 57 1015.6
20260506235754 51 2 0.9 0.9 0.00 0.53 0.53 57 1015.8
20260506235250 52 345 0.9 0.9 0.00 0.53 0.53 60 1015.4
20260506234748 52 1 0.9 0.9 0.00 0.53 0.53 58 1015.3
20260506234245 52 340 0.9 1.7 0.00 0.53 0.53 58 1015.2
20260506233742 52 10 1.7 2.6 0.00 0.53 0.53 58 1015.2
20260506233239 52 330 1.7 2.6 0.00 0.53 0.53 59 1015.3
20260506232735 52 343 1.7 1.7 0.00 0.53 0.53 60 1015.0
20260506232230 53 17 0.9 1.7 0.00 0.53 0.53 59 1015.1
20260506231727 53 4 1.7 2.6 0.00 0.53 0.53 57 1015.0